Powrót do katalogu

STARLINK-36415

AktywnyŁącznośćVLEO
NORAD 67519·PAYLOAD·🇺🇸 United States

Wystrzelony Jan 18, 2026 z Cape Canaveral Space Force Station

Loading…

Następne Przeloty (najbliższe 24 godziny)

TLE

ŚwieżeSource: CelesTrak SupGP

Epoka: Sep 15, 2026, 03:26 UTC

1 67519C 26012AC  26258.14354167  .00039812  00000+0  14417-2 0  2582
2 67519  43.0025 324.1080 0001501 267.7835 331.9947 15.27566651    18

Śledź STARLINK-36415 w czasie rzeczywistym z AllMySat

Download on the App Store